Regional Weather Roundup
Issued by NWS Sioux Falls, SD

Home | Current Version | Previous Version | Text Only | Print | Product List | Glossary On
Versions: 1 2 3 4 5 6 7 8 9 10 11 12 13 14 15 16 17 18 19 20 21 22 23 24 25 26 27 28 29 30 31 32 33 34 35 36 37 38 39 40 41 42 43 44 45 46 47 48 49 50
853
ASUS43 KFSD 251902
RWRFSD

WEATHER ROUNDUP FOR SE SOUTH DAKOTA/SW MINNESOTA/NW IOWA
NATIONAL WEATHER SERVICE SIOUX FALLS SD
200 PM CDT SUN SEP 25 2016

NOTE: "FAIR" INDICATES FEW OR NO CLOUDS BELOW 12,000 FEET WITH NO
SIGNIFICANT WEATHER AND OR OBSTRUCTIONS TO VISIBILITY.


SDZ038>040-050-052>070-252000-
SOUTHEAST SOUTH DAKOTA

CITY           SKY/WX    TMP DP  RH WIND       PRES   REMARKS
CHAMBERLAIN    SUNNY     69  37  31 NW24G36   30.15F
HURON          PTSUNNY   68  41  37 NW24G33   30.06S
MADISON        CLOUDY    57  50  77 NW24      30.06S
MITCHELL       PTSUNNY   68  42  38 NW24G33   30.10S
SIOUX FALLS    CLOUDY    62  49  62 NW24G32   30.06S
WINNER         FAIR      68  33  27 NW25G37   30.20S
YANKTON        PTSUNNY   64  46  52 NW23      30.10S
$$

MNZ071-072-080-081-089-090-097-098-252000-
SOUTHWEST MINNESOTA

CITY           SKY/WX    TMP DP  RH WIND       PRES   REMARKS
FAIRMONT       CLOUDY    62  51  67 W20G25    29.99
JACKSON        CLOUDY    61  48  63 W21       30.01S
LUVERNE        CLOUDY    57  46  67 NW20G30   30.06R
MARSHALL       CLOUDY    62  50  64 NW28G36   29.96F
MONTEVIDEO     CLOUDY    63  52  67 NW17G30   29.97R
PIPESTONE      CLOUDY    59  48  67 NW21G28   30.03R
REDWOOD FALLS  CLOUDY    61  50  67 W21G26    29.95R
TRACY          CLOUDY    62  52  69 W17G24    29.99S
WINDOM         CLOUDY    61  50  67 W17G29    29.99S
WORTHINGTON    CLOUDY    58  49  72 W21G29    30.03S
$$

IAZ001>003-012>014-020>022-031-032-NEZ013-014-SDZ071-252000-
NORTHWEST IOWA

CITY           SKY/WX    TMP DP  RH WIND       PRES   REMARKS
CHEROKEE       CLOUDY    60  50  67 W18G26    30.08S
DENISON        CLOUDY    64  48  55 NW23G29   30.08S
ESTHERVILLE    CLOUDY    61  50  67 W21G28    30.01F
LE MARS        CLOUDY    61  50  67 NW18G25   30.11S
ORANGE CITY    CLOUDY    61  52  72 W22G28    30.09R
SHELDON        CLOUDY    59  50  72 W17G24    30.06R
SIOUX CITY     CLOUDY    65  49  56 NW20G30   30.10S
SPENCER        CLOUDY    62  50  64 W26G36    30.04S
STORM LAKE     MOSUNNY   61  48  63 NW20G29   30.07S
$$

ABBREVIATIONS USED IN REMARKS
   TC - TEMPERATURE IN CELSIUS
  WCI - WIND CHILL INDEX
   HX - HEAT INDEX
  VSB - VISIBILITY





USA.gov is the U.S. government's official web portal to all federal, state and local government web resources and services.